Location: Amsterdam
(30.7274°N, 84.4357°W)
Time: 19:37:09
(UTC+00:00)

Altair - Pass Details

Date: 07 August 2024
Orbit: 1501 x 1682 km, 47.2° (Epoch: 07 September)

Event Time Altitude Azimuth Distance (km) Brightness Sun altitude
Rises 21:52:19 0° 296° (WNW) 4,793 11.0 31.8°
Reaches altitude 10° 21:56:06 10° 308° (NW) 3,778 10.5 31.0°
Maximum altitude 22:04:04 29° 5° (N) 2,547 8.9 29.2°
Drops below altitude 10° 22:11:49 10° 62° (ENE) 3,675 9.1 27.6°
Sets 22:15:26 0° 74° (ENE) 4,642 9.5 26.8°
